SL-18 DEB, 28292

Orbit data source: Space-Track

SL-18 DEB, 28292 is space debris in LEO originally from a launch on Thu, 25 Mar 1993 UTC launched from the Plesetsk Missile And Space Complex (PKMTR). Debris objects in space refer to the collection of defunct objects orbiting the Earth. Examples of debris include non-operational satellites, rocket bodies, and fragments generated from explosions, collisions, or faulty payload assembly.

Loading next visibility...
Identifier
28292, 1993-014V
Orbit
LEO
Country
Flag of CISCIS
Related business
Manufacturer
Kompleks-MIT
Mission
Spacecraft
Bus & Motor
Unknown
Mass
Unknown
Launch date (UTC)
1993-03-25 (33 years ago)
Launch vehicle
Unknown
Launch site
Plesetsk Missile And Space Complex (PKMTR)
Object type
Payload
Rocket body
Debris
Shape & HBR
Unknown shape, 0.1 m
Radar Cross Section
Small (<0.1 m²)

Expand to show TLE details & history
Last TLE update: 5 days ago

TLE from 5 days ago
0 SL-18 DEB
1 28292U 93014V   25289.78092916  .00003380  00000-0  86224-3 0  9997
2 28292  75.7549  87.2519 0129968 278.7023  79.9442 14.45815822648809
Epoch: 2025-10-16T18:44Z
TLE epoch observation values (Epoch: 2025-10-16T18:44:32.279Z)
Latitude
0.00006°
Longitude
140.58169°
Altitude
727.079 km
Speed
7.5 km/s
True Right ascension
05h 49m 00s
True Declination
0° 00' 00"
Sunlit
Object was in daylight at epoch
Visualization orbit readout
Latitude
Unknown
Longitude
Unknown
Altitude
Unknown
Speed
Unknown
Apparent Right ascension
Unknown
Apparent Declination
Unknown
Sunlit
N/A
Visualization observer readout
Local Sidereal Time
17:56:18
Azimuth
Unknown
Elevation
Unknown
Doppler factor
Unknown
Orbital elements
Apogee altitude
829.292 km
Perigee altitude
644.348 km
Semi-major axis
7,114.957 km
Eccentricity
0.013
Inclination
75.7549°
RAAN
87.2519°
Arg. of periapsis
278.7023°
True anomaly
81.41465°
Mean anomaly
79.9442°
Eccentric anomaly
80.67903°
Mean motion
3.61647 °/min
Orbital period
99.54 mins
BSTAR
0.00086224
Loading maneuver chart data...
Computing Atmospheric mass density...
Loading historical data...
Loading historical data...
Loading historical data...
Loading historical data...
Loading historical data...
Loading historical data...
Loading historical data...

Documentation

Showing up to 5 results
|